Regional Weather Roundup
Issued by NWS

Home | Current Version | Previous Version | Text Only | Print | Product List | Glossary Off
Versions: 1 2 3 4 5 6 7 8 9 10 11 12 13 14 15 16 17 18 19 20 21 22 23 24 25 26 27 28 29 30 31 32 33 34 35 36 37 38 39 40 41 42 43 44 45 46 47 48 49 50

000
ASUS43 KOAX 281210
RWRNE

WEATHER ROUNDUP FOR NEBRASKA
NATIONAL WEATHER SERVICE OMAHA NE
600 AM CST SAT FEB 28 2015

NOTES: SATELLITE DATA IS BEING USED TO AUGMENT CLOUD COVER ABOVE
       12000 FEET.
       "FAIR" INDICATES FEW OR NO CLOUDS BELOW 12,000 FEET WITH NO
       SIGNIFICANT WEATHER AND/OR OBSTRUCTIONS TO VISIBILITY.

  * THESE STATIONS DO NOT REPORT WEATHER SUCH AS RAIN...SNOW OR FOG.

NEZ001>004-019>022-054>056-281300-
NEBRASKA PANHANDLE

CITY           SKY/WX    TMP DP  RH WIND       PRES   REMARKS
SCOTTSBLUFF    PTCLDY     6   2  83 E6        30.01R WCI  -4
6HR MIN TEMP:   6; 6HR MAX TEMP:  13;

ALLIANCE       CLEAR      3   0  87 SE7       30.01R WCI  -9
6HR MIN TEMP:   3; 6HR MAX TEMP:  11;

CHADRON        CLEAR      6   1  80 SW8       30.04R WCI  -7
6HR MIN TEMP:   5; 6HR MAX TEMP:  17;

KIMBALL        MOCLDY    -2  -6  82 SW5       29.92R WCI -12
SIDNEY         CLOUDY     0  -4  83 CALM      30.01R FOG
6HR MIN TEMP:   0; 6HR MAX TEMP:   8;

$$

NEZ057>060-069>072-079>082-281300-
SOUTHWEST NEBRASKA

CITY           SKY/WX    TMP DP  RH WIND       PRES   REMARKS
NORTH PLATTE   CLOUDY    14   6  70 S15       30.17S WCI  -1
6HR MIN TEMP:  13; 6HR MAX TEMP:  16;

IMPERIAL         N/A     13   7  77 S14       30.11R WCI  -2
6HR MIN TEMP:  13; 6HR MAX TEMP:  14;

LEXINGTON      FLURRIES  15   9  77 S13       30.24F WCI   1
MCCOOK         FLURRIES  16   9  74 S12       30.20S WCI   3
6HR MIN TEMP:  13; 6HR MAX TEMP:  17; 6HR PCP: TRACE;

OGALLALA       CLEAR     11   8  87 SE3       30.10R
$$

NEZ005>010-023>029-035>040-094-281300-
NORTH CENTRAL NEBRASKA

CITY           SKY/WX    TMP DP  RH WIND       PRES   REMARKS
VALENTINE      CLEAR     12   5  73 S10       30.14R WCI  -1
6HR MIN TEMP:  12; 6HR MAX TEMP:  18;

AINSWORTH      CLEAR      9   4  83 S9        30.17R WCI  -5
BROKEN BOW     CLOUDY    13   7  77 S10       30.22S WCI   0
6HR MIN TEMP:   9; 6HR MAX TEMP:  14;

O`NEILL        CLEAR      8   4  84 S10       30.27S WCI  -7
ORD            CLOUDY    11   4  73 SE10      30.28S WCI  -3
6HR MIN TEMP:   6; 6HR MAX TEMP:  11;

THEDFORD       CLEAR     11   6  81 S6        30.15R WCI   1
$$

NEZ041-046>049-061>064-073>077-083>087-281300-
SOUTH CENTRAL NEBRASKA

CITY           SKY/WX    TMP DP  RH WIND       PRES   REMARKS
GRAND ISLAND   CLEAR      6   3  87 S8        30.36R WCI  -7
6HR MIN TEMP:   6; 6HR MAX TEMP:  12;

AURORA         FLURRIES   8   5  86 S7        30.36R WCI  -3
HASTINGS       PTCLDY     5   2  87 S7        30.33R WCI  -7
6HR MIN TEMP:   5; 6HR MAX TEMP:  11;

HEBRON         CLEAR      6   3  84 CALM      30.42R
HOLDREGE       FLURRIES  11   7  84 S7        30.27F WCI   1
KEARNEY *      CLOUDY    10   7  85 S10       30.30S WCI  -3
YORK           PTCLDY     7   5  92 S6        30.39R WCI  -3
$$

NEZ011>018-030>034-042>045-281300-
NORTHEAST NEBRASKA

CITY           SKY/WX    TMP DP  RH WIND       PRES   REMARKS
NORFOLK        CLEAR      7   1  76 S10       30.37S WCI  -8
6HR MIN TEMP:   3; 6HR MAX TEMP:   9;

ALBION         CLEAR      6   1  80 S5        30.35R WCI  -3
BLAIR          CLEAR      8   1  73 SE7       30.44S WCI  -4
COLUMBUS *     CLEAR      9  -2  61 S10       30.41R WCI  -6
FREMONT        FAIR       9   2  73 SE5       30.45S WCI   1
TEKAMAH        CLEAR      5  -1  76 S5        30.48S WCI  -4
6HR MIN TEMP:   3; 6HR MAX TEMP:   7;

WAYNE          CLEAR      4  -2  77 S7        30.41S WCI  -9
$$

NEZ050>053-065>068-078-088>093-281300-
SOUTHEAST NEBRASKA

CITY           SKY/WX    TMP DP  RH WIND       PRES   REMARKS
LINCOLN        CLEAR      7   1  76 CALM      30.46R
6HR MIN TEMP:   5; 6HR MAX TEMP:  10;

OMAHA EPPLEY   CLEAR      7   1  76 SE6       30.50S WCI  -3
6HR MIN TEMP:   6; 6HR MAX TEMP:  10;

BEATRICE       CLEAR      9   2  74 SE3       30.45R
FALLS CITY     CLEAR      9   3  77 SE6       30.50S WCI  -1
6HR MIN TEMP:   9; 6HR MAX TEMP:  14;

NEBRASKA CITY  CLEAR      6  -2  69 S5        30.48R WCI  -3
PLATTSMOUTH    FAIR       5  -1  77 E6        30.47S WCI  -6
$$

NEZ044-045-051>053-067-281300-
OMAHA AREA

CITY           SKY/WX    TMP DP  RH WIND       PRES   REMARKS
OMAHA EPPLEY   CLEAR      7   1  76 SE6       30.50S WCI  -3
6HR MIN TEMP:   6; 6HR MAX TEMP:  10;

BLAIR          CLEAR      8   1  73 SE7       30.44S WCI  -4
FREMONT        FAIR       9   2  73 SE5       30.45S WCI   1
MILLARD        CLEAR      8   1  73 SE5       30.48S WCI   0
OFFUTT AFB     CLEAR      6   0  76 E7        30.48F WCI  -6
PLATTSMOUTH    FAIR       5  -1  77 E6        30.47S WCI  -6
WAHOO          FAIR       4  -2  74 SE7       30.45S WCI  -8
$$


USA.gov is the U.S. government's official web portal to all federal, state and local government web resources and services.